Beach, ND

4:33 AM MST on November 19, 2017 (GMT -0700)
Beach

Weather History for K20U - June, 2012

Change the Weather History Date:

Tuesday, June 26, 2012

  Actual Average (KGDV) Record (KGDV)
Temperature  
Mean Temperature 82 °F -  
Max Temperature 100 °F 76 °F 104 °F (2012)
Min Temperature 64 °F 51 °F 39 °F (2003)
Cooling Degree Days 17    
Growing Degree Days 32 (Base 50)    
Moisture  
Dew Point 63 °F    
Average Humidity 63    
Maximum Humidity 100    
Minimum Humidity 16    
Precipitation  
Precipitation 0.00 in - - ()
Sea Level Pressure  
Sea Level Pressure 29.60 in    
Wind  
Wind Speed 12 mph (SE)    
Max Wind Speed 25 mph    
Max Gust Speed 41 mph    
Visibility 10 miles    
Events Thunderstorm    
Averages and records for this station are not official NWS values.
T = Trace of Precipitation, MM = Missing Value Source: NWS Daily Summary

Daily Weather History Graph

Daily Weather History Graph

Search for Another Location

Airport or City:

Trip Planner

Search our weather history database for the weather conditions in past years. The results will help you decide how hot, cold, wet, or windy it might be!

Date:

Astronomy

Jun. 26, 2012 Rise Set
Actual Time 5:02 AM MDT 8:54 PM MDT
Civil Twilight 4:23 AM MDT 9:34 PM MDT
Nautical Twilight 3:28 AM MDT 10:28 PM MDT
Astronomical Twilight 2:08 AM MDT 11:48 PM MDT
Moon 12:52 PM MDT (6/26) No Moon Set
Length of Visible Light 17h 11m
Length of Day
15h 51m
Waxing Crescent, 46% of the Moon is Illuminated
Jun 26
Waxing Crescent
Jun 26
First Quarter
Jul 3
Full
Jul 10
Last Quarter
Jul 18
New

Hourly Weather History & Observations

Time (MDT) Temp. Heat Index Dew Point Humidity Pressure Visibility Wind Dir Wind Speed Gust Speed Precip Events Conditions
12:15 AM 68.0 °F - 66.2 °F 94% 29.73 in 10.0 mi SE 11.5 mph - N/A   Clear
12:35 AM 68.0 °F - 66.2 °F 94% 29.72 in 10.0 mi SE 13.8 mph - N/A   Clear
12:55 AM 68.0 °F - 66.2 °F 94% 29.71 in 10.0 mi SE 11.5 mph - N/A   Clear
1:15 AM 68.0 °F - 66.2 °F 94% 29.71 in 10.0 mi SE 16.1 mph 19.6 mph N/A   Clear
1:35 AM 68.0 °F - 66.2 °F 94% 29.70 in 10.0 mi SE 13.8 mph 20.7 mph N/A   Clear
1:55 AM 68.0 °F - 66.2 °F 94% 29.69 in 10.0 mi SE 11.5 mph - N/A   Clear
2:15 AM 68.0 °F - 68.0 °F 100% 29.68 in 10.0 mi SE 9.2 mph - N/A   Clear
2:35 AM 68.0 °F - 66.2 °F 94% 29.68 in 10.0 mi SE 9.2 mph - N/A   Clear
2:55 AM 66.2 °F - 66.2 °F 100% 29.67 in 10.0 mi SE 8.1 mph - N/A   Clear
3:15 AM 66.2 °F - 66.2 °F 100% 29.66 in 10.0 mi SE 8.1 mph - N/A   Clear
3:35 AM 66.2 °F - 66.2 °F 100% 29.67 in 10.0 mi SE 10.4 mph - N/A   Clear
3:55 AM 66.2 °F - 66.2 °F 100% 29.67 in 10.0 mi SE 10.4 mph - N/A   Clear
4:15 AM 64.4 °F - 64.4 °F 100% 29.67 in 10.0 mi SE 8.1 mph - N/A   Clear
4:35 AM 64.4 °F - 64.4 °F 100% 29.68 in 10.0 mi SE 8.1 mph - N/A   Clear
4:55 AM 64.4 °F - 64.4 °F 100% 29.67 in 10.0 mi ESE 9.2 mph - N/A   Clear
5:15 AM 64.4 °F - 64.4 °F 100% 29.66 in 10.0 mi SE 11.5 mph - N/A   Clear
5:35 AM 66.2 °F - 66.2 °F 100% 29.67 in 10.0 mi SE 10.4 mph - N/A   Clear
5:55 AM 66.2 °F - 66.2 °F 100% 29.66 in 10.0 mi SE 8.1 mph - N/A   Clear
6:15 AM 66.2 °F - 66.2 °F 100% 29.69 in 10.0 mi NE 6.9 mph - N/A   Partly Cloudy
6:35 AM 68.0 °F - 68.0 °F 100% 29.69 in 10.0 mi ENE 4.6 mph - N/A   Partly Cloudy
6:55 AM 68.0 °F - 68.0 °F 100% 29.68 in 10.0 mi NE 5.8 mph - N/A   Clear
7:15 AM 69.8 °F - 68.0 °F 94% 29.68 in 10.0 mi East 4.6 mph - N/A   Clear
7:35 AM 71.6 °F - 68.0 °F 88% 29.68 in 10.0 mi East 6.9 mph - N/A   Partly Cloudy
7:55 AM 71.6 °F - 66.2 °F 83% 29.67 in 10.0 mi ESE 8.1 mph - N/A   Partly Cloudy
8:15 AM 73.4 °F - 68.0 °F 83% 29.67 in 10.0 mi ESE 10.4 mph - N/A   Clear
8:35 AM 75.2 °F - 66.2 °F 73% 29.66 in 10.0 mi SE 11.5 mph - N/A   Clear
8:55 AM 75.2 °F - 64.4 °F 69% 29.65 in 10.0 mi SE 12.7 mph - N/A   Clear
9:15 AM 77.0 °F - 64.4 °F 65% 29.64 in 10.0 mi SE 11.5 mph - N/A   Clear
9:35 AM 78.8 °F - 66.2 °F 65% 29.63 in 10.0 mi SE 11.5 mph - N/A   Clear
9:55 AM 80.6 °F 82.7 °F 66.2 °F 61% 29.62 in 10.0 mi ESE 12.7 mph - N/A   Clear
10:15 AM 82.4 °F 83.9 °F 64.4 °F 54% 29.61 in 10.0 mi ESE 13.8 mph 17.3 mph N/A   Clear
10:35 AM 82.4 °F 83.9 °F 64.4 °F 54% 29.61 in 10.0 mi SE 12.7 mph - N/A   Clear
10:55 AM 84.2 °F 85.0 °F 62.6 °F 48% 29.60 in 10.0 mi SE 11.5 mph - N/A   Clear
11:15 AM 86.0 °F 86.6 °F 62.6 °F 45% 29.60 in 10.0 mi SE 15.0 mph - N/A   Clear
11:35 AM 89.6 °F 90.1 °F 62.6 °F 40% 29.59 in 10.0 mi SE 12.7 mph 20.7 mph N/A   Clear
11:55 AM 89.6 °F 88.9 °F 59.0 °F 36% 29.59 in 10.0 mi SE 17.3 mph - N/A   Clear
12:15 PM 91.4 °F 92.1 °F 62.6 °F 38% 29.58 in 10.0 mi SSE 15.0 mph 21.9 mph N/A   Clear
12:35 PM 93.2 °F 93.3 °F 60.8 °F 34% 29.57 in 10.0 mi SSE 15.0 mph 24.2 mph N/A   Clear
12:55 PM 93.2 °F 93.3 °F 60.8 °F 34% 29.57 in 10.0 mi SSE 15.0 mph 20.7 mph N/A   Clear
1:15 PM 95.0 °F 94.4 °F 59.0 °F 30% 29.56 in 10.0 mi SSE 19.6 mph 26.5 mph N/A   Clear
1:35 PM 95.0 °F 96.0 °F 62.6 °F 34% 29.55 in 10.0 mi SSE 19.6 mph 27.6 mph N/A   Clear
1:55 PM 95.0 °F 95.2 °F 60.8 °F 32% 29.54 in 10.0 mi SSE 17.3 mph 25.3 mph N/A   Clear
2:15 PM 96.8 °F 96.2 °F 59.0 °F 28% 29.53 in 10.0 mi SSE 13.8 mph 21.9 mph N/A   Clear
2:35 PM 98.6 °F 99.4 °F 60.8 °F 29% 29.52 in 10.0 mi SE 17.3 mph 21.9 mph N/A   Clear
2:55 PM 98.6 °F 99.4 °F 60.8 °F 29% 29.51 in 10.0 mi ESE 16.1 mph 21.9 mph N/A   Clear
3:15 PM 98.6 °F 100.0 °F 62.6 °F 30% 29.50 in 10.0 mi SSE 12.7 mph 21.9 mph N/A   Clear
3:35 PM 100.4 °F 102.4 °F 62.6 °F 29% 29.49 in 10.0 mi SSE 16.1 mph 24.2 mph N/A   Clear
3:55 PM 100.4 °F 101.3 °F 60.8 °F 27% 29.48 in 10.0 mi SE 13.8 mph 20.7 mph N/A   Clear
4:15 PM 100.4 °F 102.4 °F 62.6 °F 29% 29.47 in 10.0 mi SE 16.1 mph 20.7 mph N/A   Clear
4:35 PM 95.0 °F 97.0 °F 64.4 °F 36% 29.47 in 10.0 mi ESE 13.8 mph 21.9 mph N/A   Clear
4:55 PM 91.4 °F 92.1 °F 62.6 °F 38% 29.46 in 10.0 mi ESE 16.1 mph - N/A   Clear
5:15 PM 98.6 °F - 44.6 °F 16% 29.46 in 10.0 mi SSE 12.7 mph 21.9 mph N/A Thunderstorm Clear
5:35 PM 95.0 °F 96.0 °F 62.6 °F 34% 29.46 in 10.0 mi SSW 6.9 mph - N/A Thunderstorm Clear
5:55 PM 91.4 °F 95.4 °F 68.0 °F 46% 29.45 in 10.0 mi ENE 4.6 mph - N/A   Clear
6:15 PM 89.6 °F 88.9 °F 59.0 °F 36% 29.45 in 10.0 mi East 3.5 mph - N/A   Clear
6:35 PM 89.6 °F 93.4 °F 68.0 °F 49% 29.44 in 10.0 mi ESE 3.5 mph - N/A   Clear
6:55 PM 89.6 °F 92.2 °F 66.2 °F 46% 29.43 in 10.0 mi SE 10.4 mph - N/A   Clear
7:15 PM 89.6 °F 93.4 °F 68.0 °F 49% 29.43 in 10.0 mi SSE 9.2 mph - N/A   Clear
7:55 PM 84.2 °F 87.3 °F 68.0 °F 58% 29.44 in 10.0 mi SSW 6.9 mph - N/A   Partly Cloudy
8:15 PM 82.4 °F 83.9 °F 64.4 °F 54% 29.45 in 10.0 mi WSW 8.1 mph - N/A   Clear
8:55 PM 80.6 °F 81.8 °F 62.6 °F 54% 29.52 in 10.0 mi NW 24.2 mph 41.4 mph N/A   Clear
9:15 PM 78.8 °F - 57.2 °F 47% 29.57 in 10.0 mi NW 24.2 mph 41.4 mph N/A   Clear
9:35 PM 75.2 °F - 53.6 °F 47% 29.60 in 10.0 mi NW 25.3 mph 35.7 mph N/A   Clear
9:55 PM 73.4 °F - 55.4 °F 53% 29.62 in 10.0 mi NNW 24.2 mph 31.1 mph N/A   Clear
10:15 PM 71.6 °F - 53.6 °F 53% 29.64 in 10.0 mi NW 25.3 mph 32.2 mph N/A   Partly Cloudy
10:35 PM 71.6 °F - 51.8 °F 50% 29.65 in 10.0 mi NW 24.2 mph 34.5 mph N/A   Clear
10:55 PM 69.8 °F - 51.8 °F 53% 29.68 in 10.0 mi NNW 19.6 mph 31.1 mph N/A   Clear
11:15 PM 68.0 °F - 51.8 °F 56% 29.70 in 10.0 mi NNW 16.1 mph 23.0 mph N/A   Mostly Cloudy
11:35 PM 66.2 °F - 51.8 °F 60% 29.72 in 10.0 mi NNW 18.4 mph 23.0 mph N/A   Overcast
11:55 PM 66.2 °F - 48.2 °F 52% 29.73 in 10.0 mi NNW 17.3 mph 24.2 mph N/A   Overcast